Meknes, Morocco

2:38 AM WET on February 24, 2018 (GMT +0000)
Meknes

Weather History for GMFM - May, 2013

Change the Weather History Date:

Thursday, May 16, 2013

  Actual Average (GMFF) Record (GMFF)
Temperature  
Mean Temperature 54 °F -  
Max Temperature 62 °F 79 °F 102 °F (2002)
Min Temperature 46 °F 56 °F 42 °F (2005)
Degree Days  
Heating Degree Days 11    
Growing Degree Days 4 (Base 50)    
Moisture  
Dew Point 45 °F    
Average Humidity 72    
Maximum Humidity 100    
Minimum Humidity 38    
Precipitation  
Precipitation 0.00 in 0.03 in - ()
Sea Level Pressure  
Sea Level Pressure 29.85 in    
Wind  
Wind Speed 8 mph ()    
Max Wind Speed 15 mph    
Max Gust Speed -    
Visibility 4.0 miles    
Events Rain    
Averages and records for this station are not official NWS values.
T = Trace of Precipitation, MM = Missing Value Source: Averaged Metar Reports

Daily Weather History Graph

Daily Weather History Graph

Search for Another Location

Airport or City:

Trip Planner

Search our weather history database for the weather conditions in past years. The results will help you decide how hot, cold, wet, or windy it might be!

Date:

Astronomy

May. 16, 2013 Rise Set
Actual Time 6:20 AM WEST 8:17 PM WEST
Civil Twilight 5:52 AM WEST 8:44 PM WEST
Nautical Twilight 5:19 AM WEST 9:18 PM WEST
Astronomical Twilight 4:43 AM WEST 9:54 PM WEST
Moon 11:35 AM WEST (5/16) 12:33 AM WEST (5/16)
Length of Visible Light 14h 52m
Length of Day
13h 56m
Waxing Crescent, 33% of the Moon is Illuminated
May 16
Waxing Crescent
May 18
First Quarter
May 25
Full
May 31
Last Quarter
Jun 8
New

Hourly Weather History & Observations

Time (WEST) Temp. Windchill Dew Point Humidity Pressure Visibility Wind Dir Wind Speed Gust Speed Precip Events Conditions
12:00 AM 51.8 °F - 48.2 °F 88% 29.80 in 3.7 mi West 9.2 mph - N/A Rain Rain
1:00 AM 51 °F - 49 °F 91% 29.80 in 3 mi NW 4.6 mph - - Rain Light Rain
1:00 AM 50.0 °F - 50.0 °F 100% 29.80 in 3.1 mi NW 10.4 mph - N/A Rain Rain
2:00 AM 51.8 °F - 50.0 °F 94% 29.80 in 3.1 mi NW 9.2 mph - N/A Rain Rain
3:00 AM 50.0 °F - 46.4 °F 87% 29.80 in 3.1 mi West 6.9 mph - N/A Rain Rain
4:00 AM 48 °F - 47 °F 95% 29.79 in 3 mi West 6.9 mph - - Rain Light Rain
4:00 AM 48.2 °F - 46.4 °F 93% 29.80 in 3.1 mi West 6.9 mph - N/A Rain Rain
5:00 AM 46.4 °F 41.9 °F 46.4 °F 100% 29.80 in 3.1 mi West 9.2 mph - N/A Rain Light Rain
6:00 AM 46.4 °F 42.9 °F 44.6 °F 93% 29.80 in 3.1 mi West 6.9 mph - N/A Rain Light Rain
7:00 AM 48 °F - 46 °F 89% 29.83 in 3 mi WSW 5.8 mph - - Rain Light Rain
7:00 AM 48.2 °F - 46.4 °F 93% 29.80 in 3.1 mi WSW 5.8 mph - N/A   Mostly Cloudy
8:00 AM 48.2 °F - 46.4 °F 93% 29.83 in 2.5 mi WSW 4.6 mph - N/A Rain Light Rain
9:00 AM 50.0 °F - 46.4 °F 87% 29.86 in 3.1 mi SW 5.8 mph - N/A   Scattered Clouds
10:00 AM 52 °F - 46 °F 74% 29.86 in 3 mi WSW 9.2 mph - -   Mostly Cloudy
10:00 AM 51.8 °F - 46.4 °F 82% 29.86 in 3.1 mi WSW 9.2 mph - N/A   Mostly Cloudy
11:00 AM 55.4 °F - 44.6 °F 67% 29.86 in 3.1 mi WSW 6.9 mph - N/A   Mostly Cloudy
12:00 PM 57.2 °F - 44.6 °F 63% 29.89 in 3.7 mi WSW 12.7 mph - N/A   Mostly Cloudy
1:00 PM 59 °F - 44 °F 46% 29.86 in 5 mi West 10.4 mph - -   Mostly Cloudy
1:00 PM 59.0 °F - 44.6 °F 59% 29.89 in 5.0 mi West 10.4 mph - N/A   Mostly Cloudy
2:00 PM 59.0 °F - 44.6 °F 59% 29.89 in 5.0 mi West 11.5 mph - N/A   Mostly Cloudy
3:00 PM 60.8 °F - 42.8 °F 52% 29.89 in 5.0 mi West 13.8 mph - N/A   Mostly Cloudy
4:00 PM 60 °F - 41 °F 38% 29.85 in 5 mi West 13.8 mph - -   Mostly Cloudy
4:00 PM 60.8 °F - 41.0 °F 48% 29.86 in 5.0 mi West 13.8 mph - N/A   Mostly Cloudy
5:00 PM 60.8 °F - 42.8 °F 52% 29.86 in 5.0 mi West 15.0 mph - N/A   Mostly Cloudy
6:00 PM 60.8 °F - 42.8 °F 52% 29.86 in 5.0 mi WNW 11.5 mph - N/A   Mostly Cloudy
7:00 PM 58 °F - 41 °F 41% 29.85 in 5 mi WNW 12.7 mph - -   Scattered Clouds
7:00 PM 59.0 °F - 41.0 °F 51% 29.86 in 5.0 mi WNW 12.7 mph - N/A   Scattered Clouds
8:00 PM 55.4 °F - 41.0 °F 58% 29.89 in 5.0 mi NW 8.1 mph - N/A   Scattered Clouds
9:00 PM 55.4 °F - 41.0 °F 58% 29.89 in 5.0 mi WNW 6.9 mph - N/A   Scattered Clouds
10:00 PM 53 °F - 43 °F 59% 29.91 in 5 mi West 3.5 mph - -   Mostly Cloudy
10:00 PM 53.6 °F - 42.8 °F 67% 29.92 in 5.0 mi West 4.6 mph - N/A   Mostly Cloudy
11:00 PM 53.6 °F - 42.8 °F 67% 29.92 in 5.0 mi West 4.6 mph - N/A   Mostly Cloudy